(39) Laetitia
(39) Laetitia
Epoch 2007 Oct. 27.0 TT = JDT 2454400.5 Goffin
M 122.50833 (2000.0) P Q
n 0.21399007 Peri. 209.49481 +0.99013265 -0.12141707
a 2.7682605 Node 157.15977 +0.13480289 +0.96165325
e 0.1143770 Incl. 10.38425 -0.03828195 +0.24592868
P 4.61 H 6.1 G 0.15 U 0
From 3843 observations at 90 oppositions, 1856-1996, mean residual 0".52.
An explanation of the orbital
elements is available.These orbital elements are also available in forms suitable for loading into a number of popular planetarium-type software programs.
Personalized ephemerides for this object (and others) can be generated using the MPES.
Date TT R. A. (2000) Decl. Delta r Elong. Phase V 2008 01 01 11 18.71 +03 06.0 2.525 3.014 110.5 17.8 11.4 2008 01 06 11 19.73 +03 10.1 2.461 3.017 115.4 17.1 11.4 2008 01 11 11 20.23 +03 18.3 2.401 3.020 120.4 16.3 11.3 2008 01 16 11 20.17 +03 30.7 2.343 3.023 125.6 15.3 11.2 2008 01 21 11 19.56 +03 47.3 2.289 3.027 131.0 14.2 11.1 2008 01 26 11 18.40 +04 08.0 2.239 3.030 136.5 12.9 11.0 2008 01 31 11 16.71 +04 32.7 2.195 3.033 142.1 11.5 10.9 2008 02 05 11 14.50 +05 01.2 2.155 3.036 147.9 9.9 10.8 2008 02 10 11 11.81 +05 33.2 2.122 3.039 153.7 8.3 10.7 2008 02 15 11 08.71 +06 07.9 2.096 3.041 159.7 6.5 10.6 2008 02 20 11 05.28 +06 44.9 2.076 3.044 165.8 4.6 10.5 2008 02 25 11 01.60 +07 23.4 2.064 3.047 171.9 2.6 10.4 2008 03 01 10 57.77 +08 02.5 2.059 3.049 177.7 0.8 10.2 2008 03 06 10 53.88 +08 41.4 2.061 3.052 175.5 1.5 10.3 2008 03 11 10 50.05 +09 19.4 2.072 3.054 169.5 3.4 10.4 2008 03 16 10 46.38 +09 55.5 2.089 3.056 163.5 5.3 10.6 2008 03 21 10 42.98 +10 29.1 2.114 3.058 157.5 7.2 10.7 2008 03 26 10 39.91 +10 59.7 2.145 3.060 151.7 8.9 10.8 2008 03 31 10 37.26 +11 26.9 2.183 3.062 146.0 10.5 10.9 2008 04 05 10 35.08 +11 50.3 2.226 3.064 140.4 12.0 11.0 2008 04 10 10 33.40 +12 09.9 2.275 3.066 135.0 13.4 11.1 2008 04 15 10 32.26 +12 25.4 2.328 3.068 129.8 14.6 11.2 2008 04 20 10 31.65 +12 37.0 2.385 3.070 124.7 15.6 11.3 2008 04 25 10 31.59 +12 44.8 2.445 3.071 119.7 16.5 11.4 2008 04 30 10 32.05 +12 48.9 2.509 3.073 115.0 17.3 11.4 2008 05 05 10 33.02 +12 49.3 2.575 3.074 110.3 17.9 11.5 2008 05 10 10 34.48 +12 46.4 2.642 3.075 105.9 18.4 11.6 2008 05 15 10 36.41 +12 40.3 2.711 3.077 101.5 18.8 11.7 2008 05 20 10 38.77 +12 31.1 2.781 3.078 97.3 19.0 11.7